When you browse on this site, cookies collect data to enhance your experience and personalize the content and advertising you see.
Visit our Privacy Policy to learn more. By continuing to use the site, you agree to this use of cookies and data.

Hourly Weather Faszcze

Today, 5 July, Sunday

Time Temperature Precipitation Wind Pressure Humidity
00:00 +18°C° 0 mm 4 mps 748 mmHg 82%
01:00 +19°C° 0 mm 4 mps 747 mmHg 74%
02:00 +18°C° 0.1 mm 4 mps 747 mmHg 77%
03:00 +18°C° 0.1 mm 3 mps 747 mmHg 81%
04:00 +18°C° 0.1 mm 3 mps 747 mmHg 84%
05:00 +18°C° 0.4 mm 3 mps 746 mmHg 88%
06:00 +17°C° 0.4 mm 3 mps 746 mmHg 91%
07:00 +17°C° 0 mm 2 mps 747 mmHg 95%
08:00 +19°C° 0 mm 3 mps 747 mmHg 88%
09:00 +21°C° 0 mm 4 mps 747 mmHg 81%
10:00 +22°C° 0 mm 5 mps 747 mmHg 75%
11:00 +23°C° 0.1 mm 5 mps 746 mmHg 73%
12:00 +24°C° 0.1 mm 6 mps 746 mmHg 72%
13:00 +26°C° 0 mm 5 mps 746 mmHg 66%
14:00 +26°C° 0.2 mm 5 mps 745 mmHg 69%
15:00 +26°C° 0.2 mm 5 mps 745 mmHg 72%
16:00 +25°C° 0.2 mm 5 mps 745 mmHg 76%
17:00 +25°C° 0.1 mm 5 mps 745 mmHg 79%
18:00 +23°C° 0.1 mm 4 mps 745 mmHg 82%
19:00 +22°C° 0.1 mm 4 mps 744 mmHg 85%
20:00 +22°C° 0 mm 4 mps 744 mmHg 86%
21:00 +21°C° 0 mm 4 mps 744 mmHg 87%
22:00 +21°C° 0 mm 4 mps 744 mmHg 88%
23:00 +21°C° 0 mm 3 mps 744 mmHg 89%

Tomorrow, 6 July, Monday

Time Temperature Precipitation Wind Pressure Humidity
00:00 +20°C° 0 mm 3 mps 744 mmHg 89%
01:00 +20°C° 0 mm 3 mps 744 mmHg 90%
02:00 +20°C° 0 mm 3 mps 744 mmHg 91%
03:00 +19°C° 0 mm 3 mps 744 mmHg 92%
04:00 +19°C° 0 mm 3 mps 744 mmHg 93%
05:00 +19°C° 0.1 mm 3 mps 744 mmHg 92%
06:00 +19°C° 0.1 mm 3 mps 744 mmHg 91%
07:00 +18°C° 0.1 mm 3 mps 744 mmHg 90%
08:00 +19°C° 0 mm 4 mps 744 mmHg 88%
09:00 +19°C° 0 mm 4 mps 744 mmHg 86%
10:00 +19°C° 0 mm 4 mps 744 mmHg 84%
11:00 +20°C° 0 mm 5 mps 744 mmHg 78%
12:00 +21°C° 0 mm 5 mps 744 mmHg 72%
13:00 +22°C° 0 mm 5 mps 743 mmHg 67%
14:00 +21°C° 0.1 mm 5 mps 744 mmHg 69%
15:00 +20°C° 0.1 mm 4 mps 744 mmHg 72%
16:00 +20°C° 0.1 mm 4 mps 744 mmHg 74%
17:00 +19°C° 0.1 mm 4 mps 744 mmHg 75%
18:00 +18°C° 0.1 mm 3 mps 744 mmHg 76%
19:00 +17°C° 0.1 mm 3 mps 744 mmHg 77%
20:00 +16°C° 0 mm 2 mps 745 mmHg 79%
21:00 +15°C° 0 mm 2 mps 745 mmHg 81%
22:00 +13°C° 0 mm 2 mps 745 mmHg 84%
23:00 +13°C° 0 mm 2 mps 746 mmHg 83%

Day after tomorrow, 7 July, Tuesday

Time Temperature Precipitation Wind Pressure Humidity
00:00 +12°C° 0 mm 3 mps 746 mmHg 82%
01:00 +12°C° 0 mm 3 mps 746 mmHg 82%
02:00 +11°C° 0 mm 3 mps 746 mmHg 83%
03:00 +11°C° 0 mm 3 mps 746 mmHg 85%
04:00 +11°C° 0 mm 3 mps 746 mmHg 87%
05:00 +12°C° 0 mm 3 mps 747 mmHg 83%
06:00 +13°C° 0 mm 4 mps 747 mmHg 79%
07:00 +14°C° 0 mm 4 mps 748 mmHg 76%
08:00 +15°C° 0 mm 5 mps 748 mmHg 71%
09:00 +15°C° 0 mm 5 mps 748 mmHg 66%
10:00 +16°C° 0 mm 5 mps 748 mmHg 61%
11:00 +16°C° 0.1 mm 6 mps 748 mmHg 61%
12:00 +17°C° 0.1 mm 6 mps 748 mmHg 61%
13:00 +17°C° 0.1 mm 6 mps 748 mmHg 61%
14:00 +16°C° 0.1 mm 6 mps 748 mmHg 62%
15:00 +16°C° 0.1 mm 6 mps 749 mmHg 63%
16:00 +16°C° 0.1 mm 5 mps 749 mmHg 64%
17:00 +15°C° 0 mm 4 mps 749 mmHg 69%
18:00 +14°C° 0 mm 3 mps 749 mmHg 73%
19:00 +15°C° 0 mm 2 mps 749 mmHg 77%
20:00 +14°C° 0 mm 2 mps 749 mmHg 81%
21:00 +13°C° 0 mm 2 mps 749 mmHg 85%
22:00 +11°C° 0 mm 3 mps 750 mmHg 88%
23:00 +10°C° 0 mm 2 mps 749 mmHg 90%

8 July, Wednesday

Time Temperature Precipitation Wind Pressure Humidity
00:00 +9°C° 0 mm 2 mps 749 mmHg 91%
01:00 +9°C° 0 mm 2 mps 749 mmHg 92%
02:00 +9°C° 0 mm 2 mps 749 mmHg 92%
03:00 +9°C° 0 mm 3 mps 749 mmHg 92%
04:00 +9°C° 0 mm 3 mps 749 mmHg 92%
05:00 +11°C° 0 mm 3 mps 749 mmHg 85%
06:00 +12°C° 0 mm 4 mps 749 mmHg 79%
07:00 +14°C° 0 mm 4 mps 749 mmHg 72%
08:00 +15°C° 0.1 mm 5 mps 748 mmHg 68%
09:00 +16°C° 0.1 mm 5 mps 748 mmHg 64%
10:00 +17°C° 0.1 mm 6 mps 748 mmHg 60%
11:00 +15°C° 0.2 mm 5 mps 748 mmHg 69%
12:00 +14°C° 0.2 mm 5 mps 748 mmHg 78%
13:00 +12°C° 0.2 mm 5 mps 747 mmHg 87%
14:00 +13°C° 0 mm 4 mps 747 mmHg 85%
15:00 +13°C° 0 mm 4 mps 748 mmHg 82%
16:00 +14°C° 0 mm 4 mps 748 mmHg 80%
17:00 +14°C° 0.2 mm 4 mps 748 mmHg 84%
18:00 +13°C° 0.2 mm 3 mps 748 mmHg 87%
19:00 +13°C° 0.2 mm 3 mps 748 mmHg 91%
20:00 +12°C° 0 mm 3 mps 748 mmHg 92%
21:00 +12°C° 0 mm 2 mps 748 mmHg 94%
22:00 +10°C° 0 mm 2 mps 748 mmHg 95%
23:00 +10°C° 0 mm 3 mps 748 mmHg 95%

9 July, Thursday

Time Temperature Precipitation Wind Pressure Humidity
00:00 +9°C° 0 mm 3 mps 749 mmHg 94%
01:00 +9°C° 0 mm 3 mps 749 mmHg 93%
02:00 +8°C° 0 mm 3 mps 749 mmHg 94%
03:00 +8°C° 0 mm 3 mps 749 mmHg 94%
04:00 +8°C° 0 mm 3 mps 749 mmHg 95%
05:00 +10°C° 0 mm 4 mps 750 mmHg 91%
06:00 +12°C° 0 mm 4 mps 750 mmHg 87%
07:00 +13°C° 0 mm 4 mps 750 mmHg 84%
08:00 +15°C° 0.1 mm 4 mps 751 mmHg 77%
09:00 +17°C° 0.1 mm 4 mps 751 mmHg 70%
10:00 +19°C° 0.1 mm 4 mps 751 mmHg 63%
11:00 +19°C° 0.2 mm 4 mps 751 mmHg 61%
12:00 +20°C° 0.2 mm 4 mps 751 mmHg 59%
13:00 +20°C° 0.2 mm 4 mps 751 mmHg 57%
14:00 +20°C° 0.1 mm 4 mps 751 mmHg 59%
15:00 +20°C° 0.1 mm 4 mps 751 mmHg 61%
16:00 +19°C° 0.1 mm 3 mps 751 mmHg 63%
17:00 +18°C° 0.1 mm 2 mps 751 mmHg 70%
18:00 +17°C° 0.1 mm 2 mps 751 mmHg 76%
19:00 +16°C° 0.1 mm 1 mps 751 mmHg 82%
20:00 +15°C° 0 mm 1 mps 751 mmHg 84%
21:00 +14°C° 0 mm 1 mps 751 mmHg 87%
22:00 +12°C° 0 mm 1 mps 751 mmHg 89%
23:00 +12°C° 0 mm 1 mps 751 mmHg 90%

10 July, Friday

Time Temperature Precipitation Wind Pressure Humidity
00:00 +12°C° 0 mm 1 mps 751 mmHg 91%
01:00 +11°C° 0 mm 1 mps 751 mmHg 91%
02:00 +10°C° 0 mm 2 mps 751 mmHg 91%
03:00 +10°C° 0 mm 2 mps 751 mmHg 91%
04:00 +10°C° 0 mm 2 mps 751 mmHg 90%
05:00 +13°C° 0 mm 2 mps 751 mmHg 86%
06:00 +14°C° 0 mm 3 mps 751 mmHg 81%
07:00 +17°C° 0 mm 3 mps 750 mmHg 76%
08:00 +18°C° 0 mm 3 mps 750 mmHg 70%
09:00 +20°C° 0 mm 4 mps 750 mmHg 63%
10:00 +22°C° 0 mm 4 mps 750 mmHg 57%
11:00 +22°C° 0 mm 4 mps 750 mmHg 57%
12:00 +23°C° 0 mm 4 mps 749 mmHg 58%
13:00 +25°C° 0 mm 4 mps 749 mmHg 58%
14:00 +25°C° 0.1 mm 4 mps 749 mmHg 61%
15:00 +25°C° 0.1 mm 4 mps 748 mmHg 64%
16:00 +25°C° 0.1 mm 4 mps 748 mmHg 67%
17:00 +23°C° 0.5 mm 4 mps 747 mmHg 74%
18:00 +21°C° 0.5 mm 3 mps 747 mmHg 81%
19:00 +20°C° 0.5 mm 3 mps 746 mmHg 89%
20:00 +19°C° 0.2 mm 3 mps 746 mmHg 91%
21:00 +19°C° 0.2 mm 3 mps 746 mmHg 93%
22:00 +18°C° 0.2 mm 3 mps 746 mmHg 95%
23:00 +18°C° 0.5 mm 3 mps 746 mmHg 95%
Show more